When you browse on this site, cookies collect data to enhance your experience and personalize the content and advertising you see.
Visit our Privacy Policy to learn more. By continuing to use the site, you agree to this use of cookies and data.
  • In Austria
  • List of Countries
  • For 7 days
  • Water Temperature
  • Satellite Maps
  • Weather Map
  • News
  • Weather Widgets
  • user-avatar
    Login

    Hourly Weather La Palma

    Today, 12 December, Wednesday

    Time Temperature Precipitation Wind Pressure Humidity
    00:00 +26°C° 0 mm 2 mps 759 mmHg 96%
    01:00 +26°C° 0 mm 2 mps 759 mmHg 96%
    02:00 +26°C° 0 mm 2 mps 759 mmHg 97%
    03:00 +26°C° 0 mm 2 mps 758 mmHg 97%
    04:00 +26°C° 0 mm 2 mps 758 mmHg 97%
    05:00 +26°C° 0 mm 2 mps 758 mmHg 97%
    06:00 +26°C° 0 mm 2 mps 759 mmHg 96%
    07:00 +26°C° 0 mm 2 mps 759 mmHg 96%
    08:00 +28°C° 0 mm 2 mps 759 mmHg 88%
    09:00 +30°C° 0 mm 3 mps 759 mmHg 81%
    10:00 +31°C° 0 mm 3 mps 760 mmHg 73%
    11:00 +33°C° 0.3 mm 3 mps 759 mmHg 72%
    12:00 +33°C° 0.3 mm 3 mps 759 mmHg 71%
    13:00 +34°C° 0.3 mm 3 mps 758 mmHg 70%
    14:00 +33°C° 1.3 mm 3 mps 757 mmHg 75%
    15:00 +31°C° 1.3 mm 3 mps 757 mmHg 80%
    16:00 +30°C° 1.3 mm 2 mps 756 mmHg 85%
    17:00 +29°C° 0.3 mm 2 mps 757 mmHg 88%
    18:00 +28°C° 0.3 mm 2 mps 757 mmHg 91%
    19:00 +27°C° 0.3 mm 2 mps 757 mmHg 95%
    20:00 +27°C° 0.3 mm 2 mps 758 mmHg 96%
    21:00 +27°C° 0.3 mm 2 mps 758 mmHg 96%
    22:00 +26°C° 0.3 mm 2 mps 759 mmHg 97%
    23:00 +26°C° 0 mm 2 mps 758 mmHg 97%

    Tomorrow, 13 December, Thursday

    Time Temperature Precipitation Wind Pressure Humidity
    00:00 +26°C° 0 mm 2 mps 758 mmHg 98%
    01:00 +26°C° 0 mm 2 mps 758 mmHg 98%
    02:00 +26°C° 0.1 mm 2 mps 758 mmHg 98%
    03:00 +26°C° 0.1 mm 1 mps 758 mmHg 98%
    04:00 +26°C° 0.1 mm 1 mps 757 mmHg 99%
    05:00 +26°C° 0.2 mm 1 mps 758 mmHg 98%
    06:00 +26°C° 0.2 mm 1 mps 758 mmHg 98%
    07:00 +26°C° 0.2 mm 1 mps 758 mmHg 97%
    08:00 +28°C° 0.8 mm 1 mps 759 mmHg 93%
    09:00 +29°C° 0.8 mm 1 mps 759 mmHg 88%
    10:00 +31°C° 0.8 mm 2 mps 760 mmHg 83%
    11:00 +31°C° 2.4 mm 2 mps 759 mmHg 81%
    12:00 +31°C° 2.4 mm 1 mps 758 mmHg 80%
    13:00 +32°C° 2.4 mm 1 mps 758 mmHg 78%
    14:00 +31°C° 2.5 mm 1 mps 757 mmHg 81%
    15:00 +31°C° 2.5 mm 1 mps 757 mmHg 83%
    16:00 +30°C° 2.5 mm 1 mps 756 mmHg 85%
    17:00 +29°C° 0.4 mm 1 mps 757 mmHg 89%
    18:00 +28°C° 0.4 mm 1 mps 757 mmHg 92%
    19:00 +27°C° 0.4 mm 1 mps 757 mmHg 95%
    20:00 +27°C° 0.1 mm 1 mps 758 mmHg 96%
    21:00 +27°C° 0.1 mm 1 mps 758 mmHg 97%
    22:00 +26°C° 0.1 mm 1 mps 759 mmHg 97%
    23:00 +26°C° 0 mm 1 mps 759 mmHg 98%

    Day after tomorrow, 14 December, Friday

    Time Temperature Precipitation Wind Pressure Humidity
    00:00 +26°C° 0 mm 1 mps 758 mmHg 98%
    01:00 +26°C° 0 mm 1 mps 758 mmHg 98%
    02:00 +26°C° 0 mm 1 mps 758 mmHg 98%
    03:00 +26°C° 0 mm 1 mps 758 mmHg 99%
    04:00 +26°C° 0 mm 1 mps 757 mmHg 99%
    05:00 +26°C° 0.4 mm 1 mps 758 mmHg 98%
    06:00 +26°C° 0.4 mm 1 mps 758 mmHg 98%
    07:00 +26°C° 0.4 mm 1 mps 758 mmHg 98%
    08:00 +26°C° 0.3 mm 0 mps 759 mmHg 91%
    09:00 +28°C° 0.3 mm 0 mps 759 mmHg 84%
    10:00 +30°C° 0.3 mm 0 mps 760 mmHg 77%
    11:00 +32°C° 0.8 mm 1 mps 759 mmHg 77%
    12:00 +32°C° 0.8 mm 1 mps 758 mmHg 76%
    13:00 +33°C° 0.8 mm 1 mps 758 mmHg 76%
    14:00 +32°C° 1.3 mm 1 mps 757 mmHg 79%
    15:00 +31°C° 1.3 mm 1 mps 757 mmHg 82%
    16:00 +31°C° 1.3 mm 1 mps 756 mmHg 85%
    17:00 +29°C° 0.4 mm 1 mps 757 mmHg 89%
    18:00 +28°C° 0.4 mm 1 mps 757 mmHg 93%
    19:00 +25°C° 0.4 mm 0 mps 758 mmHg 97%
    20:00 +25°C° 0 mm 0 mps 758 mmHg 97%
    21:00 +24°C° 0 mm 0 mps 759 mmHg 97%
    22:00 +24°C° 0 mm 0 mps 759 mmHg 98%
    23:00 +24°C° 0.2 mm 0 mps 759 mmHg 98%

    15 December, Saturday

    Time Temperature Precipitation Wind Pressure Humidity
    00:00 +24°C° 0.2 mm 0 mps 759 mmHg 98%
    01:00 +24°C° 0.2 mm 0 mps 759 mmHg 98%
    02:00 +23°C° 0.3 mm 0 mps 758 mmHg 98%
    03:00 +23°C° 0.3 mm 0 mps 758 mmHg 98%
    04:00 +23°C° 0.3 mm 0 mps 758 mmHg 98%
    05:00 +25°C° 0.2 mm 1 mps 758 mmHg 98%
    06:00 +25°C° 0.2 mm 1 mps 759 mmHg 98%
    07:00 +26°C° 0.2 mm 1 mps 759 mmHg 97%
    08:00 +28°C° 0.1 mm 1 mps 760 mmHg 90%
    09:00 +30°C° 0.1 mm 1 mps 760 mmHg 82%
    10:00 +32°C° 0.1 mm 1 mps 760 mmHg 74%
    11:00 +32°C° 0.4 mm 1 mps 760 mmHg 74%
    12:00 +32°C° 0.4 mm 1 mps 759 mmHg 73%
    13:00 +34°C° 0.4 mm 2 mps 758 mmHg 72%
    14:00 +32°C° 1.2 mm 1 mps 758 mmHg 77%
    15:00 +31°C° 1.2 mm 1 mps 757 mmHg 82%
    16:00 +30°C° 1.2 mm 1 mps 757 mmHg 87%
    17:00 +29°C° 0.6 mm 1 mps 757 mmHg 90%
    18:00 +28°C° 0.6 mm 1 mps 758 mmHg 93%
    19:00 +27°C° 0.6 mm 1 mps 758 mmHg 95%
    20:00 +26°C° 0.1 mm 1 mps 759 mmHg 96%
    21:00 +26°C° 0.1 mm 1 mps 759 mmHg 97%
    22:00 +26°C° 0.1 mm 1 mps 760 mmHg 98%
    23:00 +25°C° 0.2 mm 1 mps 760 mmHg 98%

    16 December, Sunday

    Time Temperature Precipitation Wind Pressure Humidity
    00:00 +25°C° 0.2 mm 1 mps 759 mmHg 98%
    01:00 +25°C° 0.2 mm 1 mps 759 mmHg 99%
    02:00 +25°C° 0 mm 1 mps 759 mmHg 99%
    03:00 +25°C° 0 mm 1 mps 758 mmHg 99%
    04:00 +25°C° 0 mm 1 mps 758 mmHg 99%
    05:00 +25°C° 0 mm 1 mps 759 mmHg 99%
    06:00 +25°C° 0 mm 1 mps 759 mmHg 98%
    07:00 +26°C° 0 mm 1 mps 759 mmHg 98%
    08:00 +28°C° 0 mm 1 mps 760 mmHg 90%
    09:00 +30°C° 0 mm 1 mps 760 mmHg 82%
    10:00 +32°C° 0 mm 1 mps 760 mmHg 74%
    11:00 +33°C° 0.1 mm 1 mps 759 mmHg 68%
    12:00 +33°C° 0.1 mm 1 mps 758 mmHg 63%
    13:00 +35°C° 0.1 mm 2 mps 758 mmHg 58%
    14:00 +34°C° 0.7 mm 2 mps 757 mmHg 66%
    15:00 +32°C° 0.7 mm 2 mps 757 mmHg 74%
    16:00 +31°C° 0.7 mm 2 mps 756 mmHg 82%
    17:00 +30°C° 0.3 mm 2 mps 757 mmHg 86%
    18:00 +28°C° 0.3 mm 2 mps 757 mmHg 91%
    19:00 +27°C° 0.3 mm 1 mps 758 mmHg 96%
    20:00 +27°C° 0.1 mm 1 mps 758 mmHg 97%
    21:00 +26°C° 0.1 mm 1 mps 759 mmHg 97%
    22:00 +26°C° 0.1 mm 1 mps 759 mmHg 98%
    23:00 +26°C° 0.1 mm 1 mps 759 mmHg 98%

    17 December, Monday

    Time Temperature Precipitation Wind Pressure Humidity
    00:00 +26°C° 0.1 mm 1 mps 758 mmHg 98%
    01:00 +26°C° 0.1 mm 1 mps 758 mmHg 99%
    02:00 +26°C° 0.3 mm 1 mps 758 mmHg 98%
    03:00 +26°C° 0.3 mm 1 mps 758 mmHg 98%
    04:00 +26°C° 0.3 mm 1 mps 758 mmHg 98%
    05:00 +26°C° 0.4 mm 1 mps 758 mmHg 98%
    06:00 +26°C° 0.4 mm 2 mps 759 mmHg 98%
    07:00 +26°C° 0.4 mm 2 mps 759 mmHg 97%
    08:00 +27°C° 0.5 mm 2 mps 759 mmHg 93%
    09:00 +28°C° 0.5 mm 2 mps 760 mmHg 88%
    10:00 +30°C° 0.5 mm 2 mps 760 mmHg 83%
    11:00 +30°C° 0.7 mm 2 mps 759 mmHg 82%
    12:00 +30°C° 0.7 mm 1 mps 758 mmHg 81%
    13:00 +31°C° 0.7 mm 1 mps 758 mmHg 80%
    14:00 +31°C° 1.4 mm 1 mps 757 mmHg 81%
    15:00 +30°C° 1.4 mm 1 mps 757 mmHg 82%
    16:00 +30°C° 1.4 mm 1 mps 757 mmHg 83%
    17:00 +29°C° 0.6 mm 1 mps 757 mmHg 87%
    18:00 +28°C° 0.6 mm 1 mps 758 mmHg 91%
    19:00 +26°C° 0.6 mm 1 mps 758 mmHg 94%
    20:00 +26°C° 0.2 mm 1 mps 759 mmHg 95%
    21:00 +26°C° 0.2 mm 1 mps 759 mmHg 96%
    22:00 +26°C° 0.2 mm 1 mps 759 mmHg 98%
    23:00 +25°C° 0.1 mm 1 mps 759 mmHg 98%
    Show more